SCP
1 1 1 1 1 0 1 1 1 2 2 1 1 1 1 1 1 1 1 1 1 1 0 0 0 0 0 1 1 1 1 1 1 1 1 1 0 0 1 1 1 1 1
1 1 1 1 1 0 1 1 1 2 2 1 1 1 1 1 1 1 1 1 1 1 0 0 0 0 0 1 1 1 1 1 1 1 1 1 0 0 1 1 1 1 1
0 0 1 1 1 0 0 1 1 1 1 1 1 1 1 0 0 1 1 1 1 1 1 1 1 1 1 1 1 1 1 1 1 1 1 0 0 0 1 1 1 1 1
0 0 0 1 1 0 0 0 1 1 1 1 1 1 1 1 1 1 1 1 1 1 1 1 1 1 1 2 2 2 1 1 1 1 1 0 0 0 1 1 1 1 1
0 0 1 1 1 0 0 0 0 0 1 1 1 1 1 1 1 1 1 1 1 1 1 1 1 1 2 3 3 2 1 1 1 1 1 0 0 0 0 1 1 1 1
1 1 1 1 1 1 1 0 0 0 1 1 1 1 1 1 1 1 1 1 1 1 1 1 1 1 2 2 2 2 1 1 1 1 0 0 0 0 0 0 0 1 1
1 1 1 1 1 1 1 1 1 1 1 1 1 1 1 1 1 1 1 1 1 1 1 1 1 1 1 2 2 1 1 1 1 1 0 0 0 0 0 0 0 0 0
1 1 1 1 1 1 1 1 1 1 1 1 1 1 1 1 1 1 1 1 1 1 1 1 1 1 1 1 1 1 1 1 1 0 0 0 0 0 0 0 0 0 0
1 1 1 1 1 1 1 1 1 1 1 1 1 1 1 1 1 1 1 1 1 0 0 0 1 1 1 1 1 1 1 1 1 0 0 0 0 0 0 0 0 0 0
0 0 1 1 1 1 1 1 1 1 1 1 1 1 1 1 1 1 1 1 0 0 0 0 0 1 1 1 1 1 1 1 0 0 0 0 1 0 0 0 0 0 0
0 0 1 1 1 1 1 1 1 1 1 1 1 1 1 1 1 1 1 0 0 0 0 0 0 1 1 1 1 1 1 0 0 0 0 1 1 1 0 0 0 0 0
0 0 0 0 1 1 1 1 1 1 1 1 1 1 1 1 1 1 1 1 0 0 0 0 0 0 0 0 0 0 0 0 0 0 1 1 1 1 1 0 0 0 0
1 0 0 0 0 0 0 0 0 0 0 0 0 1 1 1 1 1 1 1 0 0 0 0 0 0 0 0 0 0 0 0 0 0 1 1 1 1 1 1 0 0 0
1 1 0 0 0 0 1 1 1 0 0 1 1 1 1 1 1 0 1 0 0 0 0 0 0 0 0 0 0 0 0 0 0 0 0 1 1 1 1 1 1 1 0
1 1 0 0 0 0 1 1 1 1 1 1 1 1 1 1 0 0 0 0 0 0 0 0 0 0 0 0 0 0 0 0 0 0 0 1 1 1 1 1 1 1 1
1 1 1 0 0 0 0 0 0 0 0 1 1 0 0 0 0 0 0 0 0 0 0 0 0 0 0 0 0 0 0 0 0 0 0 0 1 1 1 1 1 1 1
1 1 1 0 0 0 0 0 0 0 0 0 0 0 0 0 0 0 0 0 0 0 0 0 0 0 0 0 0 0 0 0 0 0 0 0 1 1 1 1 1 1 1
1 1 1 0 0 0 0 0 0 0 0 1 0 0 0 0 0 0 0 0 0 0 0 0 0 0 0 0 0 0 0 0 0 0 0 0 0 1 1 1 1 1 1
1 1 1 1 0 0 0 1 1 1 1 1 1 1 0 0 0 0 0 0 0 0 0 0 0 0 0 0 0 0 0 0 0 0 0 0 0 1 1 1 1 1 1
1 1 1 1 1 1 1 1 1 2 1 1 1 1 1 1 0 0 0 0 0 0 0 0 0 0 0 0 0 0 0 0 0 0 0 0 0 1 1 1 1 0 0
1 1 1 1 1 1 1 1 1 2 1 1 1 1 1 1 1 1 1 1 1 1 0 0 0 0 0 0 0 0 0 0 0 0 0 0 0 1 0 0 0 0 0
1 1 1 1 1 1 1 1 1 1 1 1 0 1 0 0 0 1 1 1 1 1 1 1 0 0 0 0 0 0 0 0 0 0 0 0 0 0 0 0 0 0 0
1 1 1 1 1 1 1 1 1 1 1 1 1 0 0 0 0 0 1 1 1 1 1 1 1 1 0 0 0 0 0 0 0 0 0 0 0 0 0 0 0 0 0
1 1 1 1 1 1 1 1 1 1 1 1 1 1 0 0 0 0 0 1 1 1 1 1 1 1 1 1 0 0 0 0 0 0 0 0 0 0 0 0 0 0 0
1 1 1 1 1 1 1 1 1 1 1 1 1 1 0 0 0 0 0 0 1 1 1 1 1 1 1 1 1 0 0 0 0 0 0 0 0 0 0 0 0 0 0
1 1 1 1 1 1 1 1 1 1 1 1 1 1 0 0 0 0 0 0 0 1 1 1 1 1 1 1 1 1 1 0 0 0 0 0 0 0 0 0 0 0 0
Wind_Speed
6 8 10 10 11 11 11 11 11 11 11 12 12 11 11 11 11 11 11 11 10 10 9 10 10 10 10 10 9 9 9 9 9 10 11 11 11 11 11 11 10 8 11
8 9 11 10 11 11 11 11 11 11 11 11 12 11 11 11 11 11 11 11 10 10 10 10 10 10 9 9 9 9 9 8 7 8 9 11 12 12 12 12 12 8 11
9 10 10 10 11 11 11 11 11 11 11 11 11 11 11 11 11 11 11 11 11 11 11 11 11 10 9 9 9 9 9 8 7 6 6 5 8 12 12 12 12 12 12
10 9 9 10 10 10 11 11 11 11 11 11 11 11 11 11 11 11 10 11 11 11 11 11 11 12 11 10 9 9 8 8 7 7 5 6 7 11 12 12 12 12 11
10 10 10 11 11 10 10 11 10 10 10 10 11 11 11 10 11 10 10 11 11 11 11 12 12 13 13 12 10 9 8 7 7 7 7 7 6 10 12 12 11 11 11
10 10 10 11 11 10 10 10 10 10 10 10 10 10 10 10 10 10 10 11 11 11 11 12 12 12 12 11 10 9 8 8 7 6 6 6 5 10 12 11 11 11 11
9 9 10 11 10 9 9 9 9 10 10 10 10 10 9 9 10 10 10 11 11 10 11 11 11 11 11 10 10 9 9 8 5 6 7 6 7 12 12 12 11 11 11
8 9 9 10 10 9 9 9 9 9 9 9 9 9 9 9 9 10 10 10 10 10 10 10 11 11 10 10 9 10 10 10 9 8 7 6 10 12 12 12 12 11 11
7 7 8 8 8 9 9 9 8 8 8 8 8 8 8 8 8 9 10 10 10 10 9 9 9 9 9 8 8 9 10 11 7 6 9 6 10 12 12 12 12 12 12
6 5 5 7 7 7 7 8 8 7 7 7 7 7 7 7 8 8 9 9 9 9 8 8 7 7 7 7 7 7 8 8 8 8 6 7 12 12 12 12 11 11 12
5 4 4 5 5 6 7 7 6 7 6 5 4 6 5 3 4 5 8 8 8 7 6 5 4 4 4 4 5 5 5 4 7 6 5 10 12 12 11 12 11 11 11
5 4 4 4 4 4 4 5 3 4 4 4 3 4 3 3 4 6 7 7 6 6 4 3 3 2 2 1 3 5 4 6 6 6 6 12 12 12 12 11 11 11 11
5 4 3 4 4 3 3 3 1 2 2 1 2 3 3 3 3 4 3 3 3 4 2 2 2 1 2 3 4 4 6 5 5 5 7 13 13 12 12 12 11 11 11
5 3 3 3 3 3 4 3 2 1 1 2 2 3 3 2 2 2 2 2 2 1 2 2 2 3 4 5 5 6 6 4 4 4 7 14 13 13 13 13 12 11 11
6 4 3 3 3 3 3 2 3 2 2 3 2 2 3 2 2 2 2 2 2 2 2 2 3 4 5 5 6 7 6 6 6 6 5 13 14 14 14 14 13 12 12
6 5 3 4 4 4 3 3 3 3 2 3 2 2 3 2 2 3 3 3 3 2 2 3 4 4 4 4 5 6 5 5 6 6 5 7 13 14 14 14 13 13 12
6 5 4 4 4 4 4 4 3 2 3 3 2 3 3 3 3 3 3 3 2 3 4 4 4 3 3 4 5 6 5 5 5 5 5 4 5 11 13 14 14 13 13
5 6 4 4 4 4 4 3 2 3 3 2 2 3 4 4 4 4 3 3 3 3 3 3 3 3 3 3 4 4 4 4 5 5 5 5 4 5 8 13 13 13 13
5 6 5 4 4 4 4 3 2 3 3 2 3 3 3 4 5 3 3 3 4 3 3 3 3 3 3 3 3 3 3 4 4 5 5 5 5 5 4 8 12 13 14
4 5 5 5 3 3 3 3 3 3 3 3 3 3 3 3 4 3 2 3 4 3 3 3 4 3 2 2 4 4 3 3 3 4 5 4 4 5 5 5 5 8 13
4 5 5 5 3 3 2 2 2 2 2 2 2 3 3 3 3 3 2 2 3 3 3 3 3 3 2 2 3 3 3 4 4 4 3 3 4 4 4 5 4 4 5
4 4 5 4 4 3 2 2 2 2 2 2 2 2 3 3 3 2 2 2 3 3 3 2 2 1 1 1 1 1 1 2 3 3 3 3 3 3 4 6 5 5 5
3 3 4 4 4 4 3 2 3 3 1 2 2 2 2 3 3 3 2 2 2 3 2 1 1 2 1 1 0 1 2 1 1 2 3 3 3 3 3 4 6 5 6
4 4 3 3 4 4 4 3 3 2 2 2 2 1 1 2 2 2 2 2 2 2 2 1 2 1 1 1 1 1 1 2 2 1 1 2 3 4 3 4 5 5 6
4 4 3 3 3 4 4 4 3 2 2 2 2 2 2 2 2 2 2 2 2 2 2 2 2 2 1 1 0 1 1 0 1 2 2 1 2 2 3 3 3 3 5
5 4 3 3 3 3 4 4 4 3 3 3 2 2 2 1 1 1 1 1 1 1 2 2 2 2 1 1 0 1 1 1 0 1 2 2 2 1 2 2 3 3 3
Wind_Direction
86 88 76 72 73 72 71 68 70 70 71 74 78 78 77 78 78 74 73 72 70 67 66 66 65 63 64 64 65 64 62 66 68 74 71 67 69 70 69 69 75 75 77
95 93 80 77 78 75 74 71 71 71 71 74 77 78 79 80 79 77 74 72 70 68 66 66 64 62 65 66 65 62 60 63 65 73 78 72 69 71 69 67 71 76 76
94 96 86 80 80 80 77 72 73 74 74 75 78 80 82 82 80 79 76 72 70 69 68 65 62 59 62 71 68 62 57 53 53 56 71 79 71 69 70 71 74 77 76
91 91 87 85 81 82 79 74 74 75 75 77 80 82 84 83 80 78 76 73 71 70 68 65 62 55 63 74 68 60 52 44 41 52 62 71 69 71 70 71 74 75 74
90 92 89 88 85 83 79 75 75 76 78 81 82 84 83 82 80 78 77 74 72 71 68 66 63 60 63 66 61 52 41 35 47 55 64 66 64 70 70 70 72 74 75
98 98 97 93 89 86 80 77 78 77 79 82 83 85 84 83 81 77 75 74 73 72 69 66 66 66 63 59 52 40 26 28 57 65 67 68 67 71 72 71 71 72 75
102 105 108 102 98 92 87 84 81 80 83 84 85 86 85 85 82 78 76 74 73 73 72 70 70 67 62 55 47 37 25 30 70 71 69 66 66 72 72 71 71 70 71
112 113 116 118 111 102 94 90 86 84 85 87 88 89 90 89 86 82 80 78 77 77 79 76 73 69 62 56 48 39 30 33 62 69 70 65 71 74 73 71 69 70 73
112 120 130 130 122 115 107 102 98 96 96 97 99 101 101 100 96 92 87 85 85 83 81 80 79 74 68 61 51 41 35 39 53 56 66 62 67 71 71 72 71 72 73
111 118 125 129 135 131 123 118 119 118 114 117 123 125 120 114 112 105 94 90 91 90 89 88 87 87 80 69 55 42 39 45 64 60 54 64 69 71 71 72 74 75 76
105 110 115 124 129 134 136 135 145 145 142 143 156 165 159 148 130 109 98 103 103 101 102 104 108 108 105 88 61 39 40 64 73 65 53 65 72 73 74 75 74 76 76
119 118 114 115 120 121 121 139 163 157 157 187 176 169 173 110 93 102 116 122 126 124 128 146 168 179 183 108 79 55 53 59 66 67 58 67 71 74 74 74 74 75 75
110 99 107 114 113 121 114 120 119 118 149 133 78 98 94 105 128 126 140 147 159 162 162 154 188 204 101 89 81 75 65 61 61 63 59 66 69 73 74 75 75 75 74
118 116 110 113 119 120 108 109 119 104 99 83 60 79 77 66 80 101 112 119 125 105 78 71 65 57 59 67 77 78 75 75 72 71 61 64 66 69 72 73 72 72 72
127 122 109 100 94 100 99 100 95 75 60 77 46 58 74 61 66 76 85 75 70 79 87 64 62 61 57 48 60 70 72 74 81 79 68 65 65 65 67 69 69 70 72
134 134 126 115 104 96 93 80 77 77 65 64 44 31 73 70 63 66 69 65 57 54 63 75 73 73 72 67 64 66 65 72 79 90 88 70 65 63 62 63 64 68 71
129 128 122 114 106 97 85 72 75 74 75 67 43 25 56 60 66 72 67 75 66 57 53 57 61 64 72 72 67 66 58 56 69 75 85 87 74 64 62 60 59 61 65
120 118 114 105 94 96 98 89 83 75 70 71 56 23 36 58 72 71 63 70 70 64 64 64 64 63 63 70 68 66 61 56 63 67 70 75 77 73 63 63 61 59 60
121 122 124 102 95 88 97 99 76 83 73 65 60 39 30 45 63 71 60 68 69 59 55 64 61 67 73 78 88 82 66 56 58 68 66 64 70 78 77 70 66 62 59
124 124 123 110 101 96 92 90 71 58 69 66 59 47 31 45 60 68 63 67 76 67 55 64 67 58 72 72 81 84 81 75 60 58 65 61 58 68 70 76 72 64 60
131 124 122 127 122 106 96 96 92 71 63 67 61 61 45 42 52 70 71 61 77 80 75 81 82 74 67 82 78 70 61 70 79 61 61 67 64 67 69 68 66 65 60
137 138 134 136 133 117 102 106 113 103 87 81 61 55 56 53 43 57 91 90 86 87 75 75 81 72 49 80 107 116 100 53 51 74 69 70 64 63 69 72 69 68 68
145 144 142 146 137 132 129 111 98 85 73 87 82 65 53 62 58 42 46 84 108 118 122 116 110 99 68 346 65 123 126 136 108 52 69 73 67 60 63 69 67 66 75
157 147 149 146 146 146 137 130 139 145 146 133 116 117 103 85 70 58 42 71 93 103 119 142 109 93 92 345 333 21 102 131 135 126 52 73 79 69 63 67 66 65 68
158 152 154 154 152 154 155 154 165 150 146 129 120 118 104 97 88 71 48 58 78 98 110 95 82 78 80 91 45 44 56 70 123 130 140 116 69 61 75 73 74 75 78
149 142 147 154 162 163 171 167 174 160 150 135 130 134 121 109 90 73 67 64 78 88 98 103 102 105 93 74 56 98 129 114 126 112 134 141 119 90 83 81 79 82 86